$Date,$Time,DM0201B,DM0203B,DM0205B,DM0207B,DM0209B
12/11/98,00:00:01,127,176,-11,558,945
12/11/98,00:05:01,149,190,-11,561,945
12/11/98,00:10:01,189,186,-11,564,945
12/11/98,00:15:01,140,189,-11,567,945
12/11/98,00:20:01,141,197,-11,571,945
12/11/98,00:25:01,164,188,-11,573,945
12/11/98,00:30:01,119,187,-11,573,945
12/11/98,00:35:01,156,180,-11,576,945
12/11/98,00:40:01,143,182,-11,578,945
12/11/98,00:45:01,155,182,-11,577,945
12/11/98,00:50:01,179,192,-11,579,945
12/11/98,00:55:01,164,183,-11,582,945
12/11/98,01:00:01,157,178,-11,582,945
12/11/98,01:05:01,156,184,-11,584,945
12/11/98,01:10:01,118,184,-11,586,945
12/11/98,01:15:01,100,196,-11,588,945
12/11/98,01:20:01,117,191,-11,588,945
12/11/98,01:25:01,141,193,-11,588,945
12/11/98,01:30:01,181,188,-10,588,945
12/11/98,01:35:01,165,184,-11,588,945
12/11/98,01:40:01,176,195,-11,590,945
12/11/98,01:45:01,201,180,-11,592,945
12/11/98,01:50:01,199,191,-11,592,945
12/11/98,01:55:01,158,191,-11,592,945
12/11/98,02:00:01,156,191,-11,594,945
12/11/98,02:05:01,65,189,-10,596,945
12/11/98,02:10:01,96,206,-10,601,945
12/11/98,02:15:01,94,186,-10,547,945
12/11/98,02:20:01,102,182,-9,602,945
12/11/98,02:25:01,176,198,-9,480,945
12/11/98,02:30:01,171,188,-9,587,945
12/11/98,02:35:01,160,187,-8,593,945
12/11/98,02:40:01,163,188,-8,589,945
12/11/98,02:45:01,186,186,-8,587,945
12/11/98,02:50:01,148,199,-8,587,945
12/11/98,02:55:01,104,187,-7,585,945
12/11/98,03:00:01,114,188,-7,583,945
12/11/98,03:05:01,155,176,-6,583,945
12/11/98,03:10:01,124,188,-6,581,945
12/11/98,03:15:01,110,178,-5,579,945
12/11/98,03:20:01,167,186,-6,577,945
12/11/98,03:25:01,148,192,-6,575,945
12/11/98,03:30:01,128,197,-6,571,945
12/11/98,03:35:01,144,189,-6,571,945
12/11/98,03:40:01,152,194,-6,569,945
12/11/98,03:45:01,149,193,-5,571,945
12/11/98,03:50:01,130,176,-6,567,945
12/11/98,03:55:01,177,183,-6,563,945
12/11/98,04:00:01,118,185,-7,559,945
12/11/98,04:05:01,112,188,-6,557,945
12/11/98,04:10:01,137,180,-5,553,945
12/11/98,04:15:01,95,186,-4,557,945
12/11/98,04:20:01,118,190,-4,556,945
12/11/98,04:25:01,112,189,-3,552,945
12/11/98,04:30:01,129,194,-3,549,945
12/11/98,04:35:01,106,166,-4,548,945
12/11/98,04:40:01,117,185,-5,550,945
12/11/98,04:45:01,183,189,-4,561,945
12/11/98,04:50:01,152,199,-5,546,945
12/11/98,04:55:01,185,188,-6,548,945
12/11/98,05:00:01,163,178,-5,529,945
12/11/98,05:05:01,134,191,-6,512,945
12/11/98,05:10:01,171,179,-6,518,945
12/11/98,05:15:01,229,181,-6,514,945
12/11/98,05:20:01,185,193,-7,514,945
12/11/98,05:25:01,150,191,-6,510,945
12/11/98,05:30:01,160,192,-6,509,945
12/11/98,05:35:01,140,179,-5,505,945
12/11/98,05:40:01,143,190,-5,501,945
12/11/98,05:45:01,133,189,-6,495,945
12/11/98,05:50:01,153,187,-7,493,945
12/11/98,05:55:01,161,182,-6,489,945
12/11/98,06:00:01,149,183,-5,485,945
12/11/98,06:05:01,107,196,-6,480,945
12/11/98,06:10:01,172,188,-5,480,945
12/11/98,06:15:01,86,187,-4,476,945
12/11/98,06:20:01,154,187,-5,469,945
12/11/98,06:25:01,122,196,-5,467,945
12/11/98,06:30:01,140,218,-5,465,945
12/11/98,06:35:01,99,207,-4,461,945
12/11/98,06:40:01,61,185,-3,459,945
12/11/98,06:45:01,87,186,-4,456,945
12/11/98,06:50:01,59,156,-2,456,945
12/11/98,06:55:01,63,191,-1,465,945
12/11/98,07:00:01,83,210,-2,493,945
12/11/98,07:05:01,79,204,-1,454,945
12/11/98,07:10:01,10,245,-1,459,945
12/11/98,07:15:01,91,204,-1,465,945
12/11/98,07:20:01,108,183,-3,461,945
12/11/98,07:25:01,113,198,-3,432,945
12/11/98,07:30:01,98,206,-3,418,945
12/11/98,07:35:01,97,206,-3,406,945
12/11/98,07:40:01,99,201,-5,400,945
12/11/98,07:45:01,68,182,-5,402,945
12/11/98,07:50:01,69,190,-4,390,945
12/11/98,07:55:01,94,199,-5,382,945
12/11/98,08:00:01,107,190,-5,378,945
12/11/98,08:05:01,78,191,-6,372,945
12/11/98,08:10:01,66,190,-6,367,945
12/11/98,08:15:01,105,218,-6,363,945
12/11/98,08:20:01,97,181,-6,358,945
12/11/98,08:25:01,71,182,-5,360,945
12/11/98,08:30:01,104,179,-5,352,945
12/11/98,08:35:01,104,189,-4,348,945
12/11/98,08:40:01,98,199,-4,350,947
12/11/98,08:45:01,133,189,-6,348,947
12/11/98,08:50:01,112,189,-6,358,947
12/11/98,08:55:01,109,187,-6,329,947
12/11/98,09:00:01,94,177,-6,319,947
12/11/98,09:05:01,127,179,-6,315,947
12/11/98,09:10:01,120,204,-6,309,947
12/11/98,09:15:01,83,180,-5,305,947
12/11/98,09:20:01,70,177,-6,320,947
12/11/98,09:25:01,81,184,-5,308,947
12/11/98,09:30:01,61,182,-5,231,947
12/11/98,09:35:01,45,200,-5,138,947
12/11/98,09:40:01,106,202,-7,107,947
12/11/98,09:45:01,127,208,-8,91,947
12/11/98,09:50:01,82,181,-9,110,947
12/11/98,09:55:01,83,186,-9,133,947
12/11/98,10:00:01,76,207,-9,198,947
12/11/98,10:05:01,60,195,-8,297,947
12/11/98,10:10:01,84,197,-8,222,947
12/11/98,10:15:01,116,182,-8,270,947
12/11/98,10:20:01,83,192,-9,170,947
12/11/98,10:25:01,93,181,-9,189,947
12/11/98,10:30:01,104,197,-9,300,947
12/11/98,10:35:01,39,195,-8,291,947
12/11/98,10:40:01,3,146,-9,165,947
12/11/98,10:45:01,107,178,-8,240,947
12/11/98,10:50:01,102,188,-10,265,947
12/11/98,10:55:01,108,197,-10,244,947
12/11/98,11:00:01,112,186,-10,159,947
12/11/98,11:05:01,92,178,-10,267,947
12/11/98,11:10:01,56,200,-10,137,947
12/11/98,11:15:01,88,201,-10,106,947
12/11/98,11:20:01,130,184,-11,80,947
12/11/98,11:25:01,81,189,-11,69,947
12/11/98,11:30:01,60,187,-12,63,947
12/11/98,11:35:01,111,195,-12,63,947
12/11/98,11:40:01,83,185,-12,79,947
12/11/98,11:45:01,100,185,-12,83,947
12/11/98,11:50:01,100,186,-12,91,947
12/11/98,11:55:01,94,184,-12,104,947
12/11/98,12:00:01,65,197,-12,99,947
12/11/98,12:05:01,59,188,-12,99,947
12/11/98,12:10:01,68,186,-12,97,947
12/11/98,12:15:01,51,187,-12,87,947
12/11/98,12:20:01,46,185,-12,83,947
12/11/98,12:25:01,32,183,-12,81,947
12/11/98,12:30:01,63,184,-12,83,947
12/11/98,12:35:01,83,185,-12,81,947
12/11/98,12:40:01,65,192,-12,81,947
12/11/98,12:45:01,78,184,-12,77,947
12/11/98,12:50:01,78,186,-12,73,947
12/11/98,12:55:01,45,196,-12,73,947
12/11/98,13:00:01,51,192,-12,73,947
12/11/98,13:05:01,59,205,-12,73,947
12/11/98,13:10:01,44,199,-12,71,947
12/11/98,13:15:01,57,182,-12,71,947
12/11/98,13:20:01,56,192,-12,75,947
12/11/98,13:25:01,30,204,-12,81,947
12/11/98,13:30:01,41,199,-12,81,947
12/11/98,13:35:01,30,222,-12,83,947
12/11/98,13:40:01,22,203,-12,79,947
12/11/98,13:45:01,25,200,-12,73,947
12/11/98,13:50:01,27,189,-12,71,947
12/11/98,13:55:01,15,215,-12,69,947
12/11/98,14:00:01,15,246,-12,71,947
12/11/98,14:05:01,17,174,-12,73,947
12/11/98,14:10:01,3,240,-12,71,947
12/11/98,14:15:01,3,229,-12,67,947
12/11/98,14:20:01,20,217,-12,65,947
12/11/98,14:25:01,5,155,-12,69,947
12/11/98,14:30:01,29,93,-12,81,947
12/11/98,14:35:01,35,66,-12,79,947
12/11/98,14:40:01,72,91,-12,77,947
12/11/98,14:45:01,83,76,-12,75,947
12/11/98,14:50:01,94,65,-12,73,947
12/11/98,14:55:01,66,62,-12,73,947
12/11/98,15:00:01,50,76,-12,73,947
12/11/98,15:05:01,74,83,-12,75,947
12/11/98,15:10:01,74,74,-12,75,947
12/11/98,15:15:01,97,77,-12,77,947
12/11/98,15:20:01,87,77,-12,81,947
12/11/98,15:25:01,78,70,-12,81,947
12/11/98,15:30:01,70,82,-12,83,947
12/11/98,15:35:01,92,78,-12,89,947
12/11/98,15:40:01,95,72,-12,93,947
12/11/98,15:45:01,68,65,-12,95,947
12/11/98,15:50:01,73,75,-12,95,947
12/11/98,15:55:01,53,66,-12,95,947
12/11/98,16:00:01,48,82,-12,93,947
12/11/98,16:05:01,71,73,-12,91,947
12/11/98,16:10:01,56,81,-12,89,947
12/11/98,16:15:01,57,73,-12,89,947
12/11/98,16:20:01,24,43,-12,93,947
12/11/98,16:25:01,41,54,-12,91,947
12/11/98,16:30:01,61,36,-12,84,947
12/11/98,16:35:01,47,56,-12,76,947
12/11/98,16:40:01,37,12,-12,76,947
12/11/98,16:45:01,28,17,-12,84,947
12/11/98,16:50:01,17,335,-12,97,947
12/11/98,16:55:01,43,17,-12,105,947
12/11/98,17:00:01,41,18,-12,121,947
12/11/98,17:05:01,27,9,-12,121,947
12/11/98,17:10:01,7,15,-12,125,947
12/11/98,17:15:01,20,338,-12,135,947
12/11/98,17:20:01,31,6,-12,141,947
12/11/98,17:25:01,11,356,-12,151,947
12/11/98,17:30:01,13,1,-12,151,947
12/11/98,17:35:01,34,20,-11,157,947
12/11/98,17:40:01,32,354,-12,171,947
12/11/98,17:45:01,22,10,-11,169,947
12/11/98,17:50:01,31,13,-11,165,947
12/11/98,17:55:01,15,2,-11,167,947
12/11/98,18:00:01,12,18,-11,169,947
12/11/98,18:05:01,18,351,-11,159,947
12/11/98,18:10:01,12,9,-11,157,947
12/11/98,18:15:01,44,27,-11,157,947
12/11/98,18:20:01,30,18,-11,159,947
12/11/98,18:25:01,31,26,-11,161,947
12/11/98,18:30:01,33,9,-11,173,947
12/11/98,18:35:01,18,13,-11,177,947
12/11/98,18:40:01,21,17,-11,175,947
12/11/98,18:45:01,17,342,-11,175,947
12/11/98,18:50:01,2,334,-11,175,947
12/11/98,18:55:01,47,357,-11,171,947
12/11/98,19:00:01,24,12,-11,167,947
12/11/98,19:05:01,35,355,-11,163,947
12/11/98,19:10:01,26,23,-11,155,947
12/11/98,19:15:01,29,26,-11,171,947
12/11/98,19:20:01,17,50,-11,160,947
12/11/98,19:25:01,22,17,-11,168,947
12/11/98,19:30:01,26,15,-11,178,947
12/11/98,19:35:01,17,351,-11,163,949
12/11/98,19:40:01,9,1,-11,143,949
12/11/98,19:45:01,22,24,-11,135,949
12/11/98,19:50:01,12,359,-11,158,949
12/11/98,19:55:01,20,11,-11,240,949
12/11/98,20:00:01,12,19,-11,249,949
12/11/98,20:05:01,10,335,-11,356,949
12/11/98,20:10:01,19,11,-11,353,949
12/11/98,20:15:01,21,26,-11,274,949
12/11/98,20:20:01,29,40,-11,327,949
12/11/98,20:25:01,27,34,-11,262,949
12/11/98,20:30:01,28,33,-11,271,949
12/11/98,20:35:01,39,13,-11,297,949
12/11/98,20:40:01,40,8,-11,495,949
12/11/98,20:45:01,4,310,-11,257,949
12/11/98,20:50:01,35,359,-11,297,949
12/11/98,20:55:01,23,333,-11,258,949
12/11/98,21:00:01,26,330,-11,413,949
12/11/98,21:05:01,24,343,-11,300,949
12/11/98,21:10:01,56,353,-11,333,949
12/11/98,21:15:01,17,341,-11,426,949
12/11/98,21:20:01,66,338,-11,353,949
12/11/98,21:25:01,66,329,-11,689,949
12/11/98,21:30:01,42,354,-11,476,949
12/11/98,21:35:01,52,19,-11,404,949
12/11/98,21:40:01,30,26,-11,390,949
12/11/98,21:45:01,46,339,-11,393,949
12/11/98,21:50:01,54,12,-11,419,949
12/11/98,21:55:01,55,352,-10,398,949
12/11/98,22:00:01,19,23,-10,406,949
12/11/98,22:05:01,32,5,-10,350,949
12/11/98,22:10:01,39,359,-10,320,949
12/11/98,22:15:01,48,333,-10,340,949
12/11/98,22:20:01,44,344,-10,461,949
12/11/98,22:25:01,19,17,-10,421,949
12/11/98,22:30:01,30,346,-10,756,949
12/11/98,22:35:01,9,296,-10,387,949
12/11/98,22:40:01,22,330,-10,565,949
12/11/98,22:45:01,13,334,-10,374,949
12/11/98,22:50:01,19,6,-10,401,949
12/11/98,22:55:01,34,34,-10,396,949
12/11/98,23:00:01,54,33,-10,704,949
12/11/98,23:05:01,40,8,-10,543,949
12/11/98,23:10:01,22,339,-10,673,949
12/11/98,23:15:01,50,342,-10,609,949
12/11/98,23:20:01,53,359,-10,544,949
12/11/98,23:25:01,74,20,-10,675,949
12/11/98,23:30:01,60,25,-10,379,949
12/11/98,23:35:01,40,24,-9,501,949
12/11/98,23:40:01,41,7,-10,639,949
12/11/98,23:45:01,58,16,-10,515,949
12/11/98,23:50:01,93,1,-10,594,949
12/11/98,23:55:01,55,4,-11,614,949
12/12/98,00:00:01,65,25,-10,642,949
